Regional Weather Roundup
Issued by NWS Cleveland, OH

Home | Current Version | Previous Version | Graphics & Text | Print | Product List | Glossary On
Versions: 1 2 3 4 5 6 7 8 9 10 11 12 13 14 15 16 17 18 19 20 21 22 23 24 25 26 27 28 29 30 31 32 33 34 35 36 37 38 39 40 41 42 43 44 45 46 47 48 49 50
000
ASUS41 KCLE 160810
RWRCLE
OHIO REGIONAL WEATHER ROUNDUP
NATIONAL WEATHER SERVICE WILMINGTON, OH
400 AM EDT TUE SEP 16 2014

NOTE: "FAIR" INDICATES FEW OR NO CLOUDS BELOW 12,000 FEET WITH NO
SIGNIFICANT WEATHER AND/OR OBSTRUCTIONS TO VISIBILITY.

OHZ001>008-015>018-024>027-034-035-043-044-160900-
   NORTHWEST OHIO

CITY           SKY/WX    TMP DP  RH WIND       PRES   REMARKS
DEFIANCE       CLOUDY    54  51  90 N5        30.14R
FINDLAY        CLOUDY    53  52  96 NW7       30.11S FOG
TOLEDO EXPRESS CLOUDY    54  52  94 NW6       30.12S
TOLEDO METCALF CLOUDY    54  51  90 NW9       30.13R
LIMA           FOG       53  52  96 N10       30.12R VSB 1/2
$$

OHZ009>014-019>023-028>033-038-089-160900-
   NORTHEAST OHIO

CITY           SKY/WX    TMP DP  RH WIND       PRES   REMARKS
CLE-HOPKINS    CLOUDY    53  51  93 SW6       30.10S FOG
CLE-LAKEFRONT  CLOUDY    57  52  83 S3        30.07R
CUY CO. ARPT   NOT AVBL
LORAIN-ELYRIA  CLOUDY    57  52  83 W9        30.10R
ASHTABULA      FOG       50  50 100 CALM      30.08R VSB 1
AKRON-CANTON   LGT RAIN  54  51  90 N8        30.08S FOG
WOOSTER        CLOUDY    55  53  93 NW6       30.10R
MANSFIELD      MOCLDY    50  50 100 NW5       30.10S FOG
YOUNGSTOWN     DRIZZLE   53  51  93 NW6       30.07S FOG
$$

OHZ042-051>053-060>062-070>072-077>081-160900-
  SOUTHWEST OHIO

CITY           SKY/WX    TMP DP  RH WIND       PRES   REMARKS
CINC-COVINGTON CLOUDY    59  57  93 N5        30.10S FOG
CINC-LUNKEN    LGT RAIN  59  58  96 NE3       30.11S FOG
HAMILTON       CLOUDY    59  57  93 CALM      30.11S
DAYTON         CLOUDY    57  55  93 N5        30.11S
WRIGHT-PAT AFB CLOUDY    57  56  94 N6        30.10S
DAYTON GENERAL CLOUDY    57  56  96 CALM      30.09F
WILMINGTON     LGT RAIN  56  54  93 N3        30.10S FOG
$$

OHZ036-037-039>041-045>050-054>059-063>069-073>076-082>088-160900-
  CENTRAL AND SOUTHEAST OHIO

CITY           SKY/WX    TMP DP  RH WIND       PRES   REMARKS
COLUMBUS       CLOUDY    59  52  77 N9        30.09S
OSU AIRPORT    CLOUDY    56  53  90 N5        30.10S
BOLTON FIELD   CLOUDY    56  55  96 NW7       30.10S
RICKENBACK AFB CLOUDY    57  53  88 N3        30.09S
NEWARK         CLOUDY    57  52  83 VRB5      30.09S
MARION         CLOUDY    53  51  93 N9        30.11R FOG
LANCASTER      CLOUDY    57  54  89 N5        30.09F
ZANESVILLE     MOCLDY    56  53  90 NW5       30.08F
NEW PHILLY     CLOUDY    56  55  97 W3        30.08S
$$



USA.gov is the U.S. government's official web portal to all federal, state and local government web resources and services.